#�ϑ�����,���ϕ���,���ϕ���,�ő啗��,�ő啗����������,�ő�u�ԕ���,�ő�u�ԕ�����������
#(�N����),(m/s)   ,(16����),(m/s)   ,(16����)        ,(m/s)       ,(16����)            
2012/2/8 0:01,1,12,1,13,2.2,8
2012/2/8 0:02,1.1,11,1.1,13,3.9,12
2012/2/8 0:03,1.2,10,1.2,14,4.1,10
2012/2/8 0:04,1.6,11,1.6,14,5,13
2012/2/8 0:05,1.8,11,1.8,11,3.7,13
2012/2/8 0:06,1.7,11,1.8,11,2.9,12
2012/2/8 0:07,1.8,11,1.8,11,2.6,8
2012/2/8 0:08,1.9,11,1.9,11,3.1,11
2012/2/8 0:09,2,11,2,11,5.5,9
2012/2/8 0:10,2.1,12,2.1,12,3.7,10
2012/2/8 0:11,2.1,12,2.1,12,3.5,7
2012/2/8 0:12,2,11,2.1,12,3.1,8
2012/2/8 0:13,1.9,11,2,12,3.7,12
2012/2/8 0:14,1.7,11,1.9,12,3.7,10
2012/2/8 0:15,1.6,11,1.7,12,2.2,8
2012/2/8 0:16,1.5,11,1.6,12,2,12
2012/2/8 0:17,1.6,11,1.6,12,2.2,12
2012/2/8 0:18,1.6,11,1.6,12,2.5,12
2012/2/8 0:19,1.6,11,1.6,12,2.4,11
2012/2/8 0:20,1.6,11,1.6,12,2.2,11
2012/2/8 0:21,1.7,11,1.7,12,2.7,13
2012/2/8 0:22,1.6,12,1.7,11,1.9,13
2012/2/8 0:23,1.6,12,1.6,11,2,10
2012/2/8 0:24,1.5,12,1.6,11,2.6,10
2012/2/8 0:25,1.4,12,1.5,11,2,8
2012/2/8 0:26,1.4,12,1.4,11,1,13
2012/2/8 0:27,1.3,12,1.4,11,1.1,14
2012/2/8 0:28,1.2,12,1.3,11,1.4,14
2012/2/8 0:29,1.1,12,1.2,11,1.4,12
2012/2/8 0:30,1,12,1.1,11,0.6,9
2012/2/8 0:31,0.8,12,0.9,11,0.6,12
2012/2/8 0:32,0.8,12,0.8,12,1.1,12
2012/2/8 0:33,0.8,12,0.8,12,2.2,13
2012/2/8 0:34,0.8,12,0.8,12,2.1,12
2012/2/8 0:35,1,13,1,12,3.2,12
2012/2/8 0:36,1.1,12,1.1,12,2.4,11
2012/2/8 0:37,1.2,12,1.2,12,2.7,10
2012/2/8 0:38,1.3,12,1.3,12,2.5,9
2012/2/8 0:39,1.3,12,1.3,12,2.5,12
2012/2/8 0:40,1.4,12,1.4,12,1.1,12
2012/2/8 0:41,1.5,12,1.5,12,2.1,10
2012/2/8 0:42,1.5,12,1.5,12,1.5,11
2012/2/8 0:43,1.4,12,1.5,12,0.8,12
2012/2/8 0:44,1.4,11,1.4,12,3.2,8
2012/2/8 0:45,1.3,11,1.4,12,3.8,9
2012/2/8 0:46,1.4,11,1.4,12,4.4,9
2012/2/8 0:47,1.4,11,1.4,12,4.2,10
2012/2/8 0:48,1.4,11,1.4,12,3.6,9
2012/2/8 0:49,1.6,11,1.6,11,6.2,11
2012/2/8 0:50,1.8,11,1.8,11,4.5,12
2012/2/8 0:51,2,11,2,11,3.8,12
2012/2/8 0:52,2.1,11,2.1,11,5,13
2012/2/8 0:53,2.2,11,2.2,11,2.9,13
2012/2/8 0:54,2.3,11,2.3,11,4.2,12
2012/2/8 0:55,2.4,11,2.4,11,4.2,12
2012/2/8 0:56,2.4,11,2.4,11,3.3,13
2012/2/8 0:57,2.3,12,2.4,11,2.1,16
2012/2/8 0:58,2.2,12,2.2,11,3.1,12
2012/2/8 0:59,2.1,12,2.2,11,4.7,12
2012/2/8 1:00,2,13,2.1,11,3.2,14
2012/2/8 1:01,1.9,13,2,11,3.3,16
2012/2/8 1:02,1.9,13,1.9,11,2.7,14
2012/2/8 1:03,1.9,13,1.9,11,2.7,14
2012/2/8 1:04,1.9,14,1.9,11,3.7,16
2012/2/8 1:05,1.9,14,1.9,11,3.7,16
2012/2/8 1:06,1.8,14,1.9,12,3.5,16
2012/2/8 1:07,2.1,14,2.1,12,4.4,15
2012/2/8 1:08,2.2,14,2.2,12,3.3,15
2012/2/8 1:09,2.1,15,2.2,14,2.5,15
2012/2/8 1:10,2,15,2.1,14,2.2,12
2012/2/8 1:11,1.9,14,2,14,2.4,12
2012/2/8 1:12,1.8,14,1.9,14,2.6,13
2012/2/8 1:13,1.9,14,1.9,14,3.6,14
2012/2/8 1:14,1.8,14,1.9,14,2.6,13
2012/2/8 1:15,1.7,14,1.8,14,2.6,15
2012/2/8 1:16,1.7,14,1.8,14,3,1
2012/2/8 1:17,1.6,14,1.7,14,3.2,16
2012/2/8 1:18,1.5,14,1.6,14,2.4,14
2012/2/8 1:19,1.4,14,1.5,15,2,1
2012/2/8 1:20,1.4,14,1.4,15,0.9,1
2012/2/8 1:21,1.4,14,1.4,14,1.8,9
2012/2/8 1:22,1.3,14,1.3,14,1.8,9
2012/2/8 1:23,1.3,13,1.3,14,2.1,11
2012/2/8 1:24,1.3,13,1.3,14,2,10
2012/2/8 1:25,1.2,13,1.3,14,1.6,12
2012/2/8 1:26,1.1,12,1.2,14,1,14
2012/2/8 1:27,1.1,12,1.1,14,3.3,13
2012/2/8 1:28,1.2,12,1.2,14,2.5,12
2012/2/8 1:29,1.2,12,1.2,14,2,13
2012/2/8 1:30,1.3,12,1.3,14,1.6,12
2012/2/8 1:31,1.3,12,1.3,14,1.8,12
2012/2/8 1:32,1.3,12,1.3,14,1.6,12
2012/2/8 1:33,1.2,12,1.3,13,1,12
2012/2/8 1:34,1.1,12,1.2,13,0.5,11
2012/2/8 1:35,1,12,1.1,12,1.6,14
2012/2/8 1:36,1.1,12,1.1,12,2,14
2012/2/8 1:37,1,12,1.1,12,1.3,12
2012/2/8 1:38,1,13,1,12,2,15
2012/2/8 1:39,0.9,13,1,12,2.2,16
2012/2/8 1:40,0.9,13,0.9,12,2.4,15
2012/2/8 1:41,0.9,14,0.9,12,2,16
2012/2/8 1:42,0.9,14,0.9,12,2.2,14
2012/2/8 1:43,1,14,1,12,3,14
2012/2/8 1:44,1.1,14,1.1,12,1.1,16
2012/2/8 1:45,1.1,14,1.1,12,1.1,13
2012/2/8 1:46,1,14,1,12,1.3,8
2012/2/8 1:47,1.1,14,1.1,14,3.2,10
2012/2/8 1:48,1.1,14,1.1,14,3.3,10
2012/2/8 1:49,1.2,13,1.2,13,3.3,9
2012/2/8 1:50,1.3,11,1.3,12,3.6,8
2012/2/8 1:51,1.3,10,1.4,11,2.1,8
2012/2/8 1:52,1.5,10,1.5,10,3.7,9
2012/2/8 1:53,1.4,9,1.4,10,3,9
2012/2/8 1:54,1.5,9,1.5,10,2.9,10
2012/2/8 1:55,1.7,9,1.7,9,3.8,12
2012/2/8 1:56,1.9,10,1.9,10,4.3,12
2012/2/8 1:57,2,10,2.1,10,4.1,10
2012/2/8 1:58,2,10,2,10,2.7,8
2012/2/8 1:59,1.8,10,2,10,2,9
2012/2/8 2:00,1.7,10,1.8,10,2,9
2012/2/8 2:01,1.6,10,1.7,10,2.2,12
2012/2/8 2:02,1.6,10,1.6,10,2.1,9
2012/2/8 2:03,1.6,10,1.6,10,2.2,9
2012/2/8 2:04,1.5,10,1.6,10,1.8,10
2012/2/8 2:05,1.4,10,1.5,10,2.1,10
2012/2/8 2:06,1.3,10,1.4,10,3.9,12
2012/2/8 2:07,1.4,10,1.4,10,3.6,11
2012/2/8 2:08,1.5,10,1.5,10,3.6,11
2012/2/8 2:09,1.7,10,1.7,10,3,9
2012/2/8 2:10,1.7,10,1.7,10,3.1,9
2012/2/8 2:11,1.8,9,1.8,10,3.2,8
2012/2/8 2:12,1.9,9,1.9,9,4.1,8
2012/2/8 2:13,1.9,9,1.9,9,3,8
2012/2/8 2:14,2,10,2,10,4.4,11
2012/2/8 2:15,2.2,10,2.2,10,4.5,10
2012/2/8 2:16,2.1,9,2.2,10,4.5,10
2012/2/8 2:17,2.1,9,2.1,10,3.9,9
2012/2/8 2:18,2,9,2.1,10,4.4,9
2012/2/8 2:19,2,9,2,10,4.7,9
2012/2/8 2:20,2.1,9,2.1,10,4.2,9
2012/2/8 2:21,2.2,10,2.2,10,5.2,9
2012/2/8 2:22,2.2,10,2.2,10,4.1,9
2012/2/8 2:23,2.2,10,2.2,10,4.1,9
2012/2/8 2:24,2.2,10,2.3,10,3,8
2012/2/8 2:25,2,9,2.2,10,3.9,10
2012/2/8 2:26,2.1,9,2.1,10,4.2,10
2012/2/8 2:27,2,9,2.1,10,4.5,10
2012/2/8 2:28,2.1,9,2.1,10,3.9,10
2012/2/8 2:29,2,9,2.1,10,2.5,9
2012/2/8 2:30,1.9,9,2,10,2.5,10
2012/2/8 2:31,1.8,9,1.9,10,2.4,10
2012/2/8 2:32,1.7,10,1.8,10,2,9
2012/2/8 2:33,1.4,9,1.7,10,0.5,2
2012/2/8 2:34,1.5,9,1.5,10,2.6,11
2012/2/8 2:35,1.5,10,1.5,9,2.2,10
2012/2/8 2:36,1.5,10,1.5,9,3.1,11
2012/2/8 2:37,1.6,10,1.6,9,3.8,11
2012/2/8 2:38,1.6,10,1.6,9,3.8,11
2012/2/8 2:39,1.5,10,1.6,9,2.6,11
2012/2/8 2:40,1.6,10,1.6,9,3.2,10
2012/2/8 2:41,1.6,10,1.6,10,4.7,10
2012/2/8 2:42,1.7,10,1.7,10,3.1,11
2012/2/8 2:43,2,10,2,10,4.4,9
2012/2/8 2:44,2.2,10,2.2,10,4.5,10
2012/2/8 2:45,2.4,10,2.4,10,5,10
2012/2/8 2:46,2.5,10,2.5,10,5.4,9
2012/2/8 2:47,2.4,10,2.5,10,3.1,11
2012/2/8 2:48,2.5,10,2.5,10,4.5,11
2012/2/8 2:49,2.7,10,2.7,10,3.8,11
2012/2/8 2:50,2.7,10,2.7,10,3.1,9
2012/2/8 2:51,2.7,10,2.8,10,2.9,9
2012/2/8 2:52,2.7,10,2.8,10,4.1,9
2012/2/8 2:53,2.7,10,2.8,10,3.7,10
2012/2/8 2:54,2.5,10,2.7,10,3.2,10
2012/2/8 2:55,2.4,10,2.5,10,4.5,10
2012/2/8 2:56,2.4,10,2.4,10,4.3,10
2012/2/8 2:57,2.5,10,2.5,10,5.1,9
2012/2/8 2:58,2.5,10,2.5,10,6,10
2012/2/8 2:59,2.6,10,2.6,10,5.5,10
2012/2/8 3:00,2.6,10,2.6,10,4.2,10
2012/2/8 3:01,2.7,10,2.7,10,4.9,10
2012/2/8 3:02,2.8,10,2.8,10,4.9,9
2012/2/8 3:03,2.7,10,2.8,10,4.5,9
2012/2/8 3:04,2.7,10,2.7,10,3.9,9
2012/2/8 3:05,2.7,10,2.8,10,4.9,9
2012/2/8 3:06,2.8,10,2.8,10,4.8,10
2012/2/8 3:07,2.9,10,2.9,10,6,8
2012/2/8 3:08,2.8,10,2.9,10,5.8,10
2012/2/8 3:09,2.5,10,2.8,10,2.6,9
2012/2/8 3:10,2.6,10,2.6,10,6.1,10
2012/2/8 3:11,2.5,10,2.6,10,4.7,10
2012/2/8 3:12,2.5,10,2.6,10,6.4,10
2012/2/8 3:13,2.8,10,2.8,10,5.5,10
2012/2/8 3:14,2.8,10,2.8,10,4.5,10
2012/2/8 3:15,2.8,10,2.8,10,4.4,9
2012/2/8 3:16,2.9,10,2.9,10,6.5,9
2012/2/8 3:17,2.8,10,2.9,10,5.2,10
2012/2/8 3:18,2.7,10,2.8,10,4.3,11
2012/2/8 3:19,2.8,10,2.8,10,5.6,11
2012/2/8 3:20,3,10,3,10,6.4,10
2012/2/8 3:21,3.1,10,3.1,10,6.1,9
2012/2/8 3:22,3.2,10,3.2,10,6.1,10
2012/2/8 3:23,3.1,10,3.2,10,3.8,10
2012/2/8 3:24,3.2,10,3.2,10,4.8,10
2012/2/8 3:25,3.4,10,3.4,10,5,10
2012/2/8 3:26,3.3,10,3.4,10,5,11
2012/2/8 3:27,3.3,10,3.4,10,4.9,10
2012/2/8 3:28,3.2,10,3.3,10,2.9,10
2012/2/8 3:29,3.2,10,3.3,10,4.3,9
2012/2/8 3:30,3,10,3.1,10,5.4,10
2012/2/8 3:31,3,10,3,10,5.5,9
2012/2/8 3:32,2.7,10,3,10,6.1,10
2012/2/8 3:33,2.9,10,2.9,10,7.1,9
2012/2/8 3:34,3,10,3,10,6.9,10
2012/2/8 3:35,3,10,3,10,6,10
2012/2/8 3:36,2.9,10,3,10,5.2,9
2012/2/8 3:37,3,10,3,10,4.9,10
2012/2/8 3:38,3.2,10,3.2,10,4.5,9
2012/2/8 3:39,3.3,10,3.3,10,4.9,10
2012/2/8 3:40,3.3,10,3.4,10,6.1,9
2012/2/8 3:41,3.4,10,3.5,10,7,10
2012/2/8 3:42,3.6,10,3.6,10,5.2,9
2012/2/8 3:43,3.6,10,3.6,10,6.4,10
2012/2/8 3:44,3.5,10,3.6,10,6.3,9
2012/2/8 3:45,3.6,10,3.6,10,6.9,11
2012/2/8 3:46,3.6,10,3.6,10,6.4,10
2012/2/8 3:47,3.6,10,3.6,10,5.7,9
2012/2/8 3:48,3.7,10,3.7,10,5.6,11
2012/2/8 3:49,3.8,10,3.8,10,7.2,10
2012/2/8 3:50,4,10,4,10,6.8,10
2012/2/8 3:51,3.9,10,4,10,4.9,10
2012/2/8 3:52,3.8,10,3.9,10,5.7,10
2012/2/8 3:53,3.8,10,3.9,10,6.1,11
2012/2/8 3:54,3.9,10,3.9,10,6.3,10
2012/2/8 3:55,3.8,10,3.9,10,5.6,9
2012/2/8 3:56,3.8,10,3.9,10,6.7,10
2012/2/8 3:57,3.9,10,3.9,10,8.1,10
2012/2/8 3:58,4,10,4,10,7.1,10
2012/2/8 3:59,4.2,10,4.2,10,8.5,10
2012/2/8 4:00,4.1,10,4.2,10,6.1,10
2012/2/8 4:01,4.1,10,4.1,10,6,10
2012/2/8 4:02,4.1,10,4.1,10,5.5,9
2012/2/8 4:03,4,10,4.1,10,5.5,9
2012/2/8 4:04,3.8,10,4,10,5.5,9
2012/2/8 4:05,3.8,10,3.9,10,5.6,9
2012/2/8 4:06,3.8,10,3.8,10,4.4,8
2012/2/8 4:07,3.8,10,3.9,10,6.3,10
2012/2/8 4:08,3.7,10,3.8,10,6.2,10
2012/2/8 4:09,3.5,10,3.7,10,6,10
2012/2/8 4:10,3.3,10,3.5,10,4.4,10
2012/2/8 4:11,3.3,10,3.3,10,4.5,9
2012/2/8 4:12,3.2,10,3.3,10,3.9,10
2012/2/8 4:13,3.1,10,3.2,10,3.8,10
2012/2/8 4:14,3.1,10,3.2,10,4.7,9
2012/2/8 4:15,3,10,3.1,10,4.2,10
2012/2/8 4:16,3.2,10,3.2,10,5.1,9
2012/2/8 4:17,3,10,3.2,10,4.7,10
2012/2/8 4:18,2.8,10,3,10,4.1,11
2012/2/8 4:19,2.8,10,2.9,10,3.9,10
2012/2/8 4:20,2.7,10,2.8,10,3.9,11
2012/2/8 4:21,2.7,10,2.7,10,4.4,11
2012/2/8 4:22,2.8,10,2.8,10,4.2,10
2012/2/8 4:23,2.8,10,2.8,10,4.9,10
2012/2/8 4:24,2.9,10,2.9,10,5,10
2012/2/8 4:25,2.9,10,2.9,10,3.9,10
2012/2/8 4:26,2.8,10,2.9,10,4.4,10
2012/2/8 4:27,2.8,10,2.8,10,5,10
2012/2/8 4:28,2.8,10,2.9,10,3.6,10
2012/2/8 4:29,2.7,10,2.8,10,2.7,10
2012/2/8 4:30,2.6,10,2.7,10,2.5,10
2012/2/8 4:31,2.4,11,2.6,10,1.8,13
2012/2/8 4:32,2.3,11,2.4,10,2.2,11
2012/2/8 4:33,2.1,11,2.2,10,1.8,12
2012/2/8 4:34,1.9,11,2,10,2.9,10
2012/2/8 4:35,1.7,11,1.8,10,2.4,10
2012/2/8 4:36,1.6,11,1.7,10,2,11
2012/2/8 4:37,1.4,11,1.5,10,2.2,9
2012/2/8 4:38,1.2,11,1.3,10,2,10
2012/2/8 4:39,1.1,11,1.2,10,2.2,9
2012/2/8 4:40,1.2,11,1.2,11,2.4,11
2012/2/8 4:41,1.2,11,1.2,11,2.9,12
2012/2/8 4:42,1.2,11,1.2,11,2.5,10
2012/2/8 4:43,1.2,11,1.2,11,2.7,9
2012/2/8 4:44,1.2,11,1.3,11,2,13
2012/2/8 4:45,1.2,11,1.2,11,3.3,10
2012/2/8 4:46,1.3,11,1.3,11,2.9,10
2012/2/8 4:47,1.5,11,1.5,11,4.4,11
2012/2/8 4:48,1.6,11,1.6,11,3.7,13
2012/2/8 4:49,1.7,11,1.7,11,3.6,12
2012/2/8 4:50,1.8,12,1.8,12,4.3,13
2012/2/8 4:51,1.8,12,1.8,12,3.6,13
2012/2/8 4:52,1.9,12,1.9,12,3.2,12
2012/2/8 4:53,2,12,2,12,3.7,12
2012/2/8 4:54,2.1,12,2.1,12,3.7,12
2012/2/8 4:55,2,12,2.1,12,2.5,13
2012/2/8 4:56,2,12,2,12,2.1,9
2012/2/8 4:57,1.8,12,2,12,3,11
2012/2/8 4:58,1.8,12,1.8,12,3.7,14
2012/2/8 4:59,1.8,12,1.9,12,3.6,12
2012/2/8 5:00,1.7,12,1.8,12,3.7,9
2012/2/8 5:01,1.8,11,1.8,12,4.7,11
2012/2/8 5:02,1.8,11,1.8,12,4.5,9
2012/2/8 5:03,2,11,2,12,4.8,10
2012/2/8 5:04,2.1,11,2.1,12,5.1,9
2012/2/8 5:05,2.3,11,2.3,11,5.6,8
2012/2/8 5:06,2.4,11,2.4,11,5.1,11
2012/2/8 5:07,2.6,11,2.6,11,5.1,11
2012/2/8 5:08,2.7,11,2.7,11,6.8,10
2012/2/8 5:09,3,10,3,10,7.2,9
2012/2/8 5:10,3.2,11,3.2,11,6.7,9
2012/2/8 5:11,3.4,10,3.4,10,7.5,10
2012/2/8 5:12,3.7,10,3.7,10,7.4,10
2012/2/8 5:13,3.7,10,3.7,10,5.5,10
2012/2/8 5:14,3.6,10,3.7,10,6.5,9
2012/2/8 5:15,3.7,10,3.7,10,7.6,10
2012/2/8 5:16,3.9,11,3.9,11,8.4,11
2012/2/8 5:17,3.9,10,3.9,11,6,11
2012/2/8 5:18,3.9,11,4,10,5.2,11
2012/2/8 5:19,3.9,11,3.9,10,7.2,10
2012/2/8 5:20,4,11,4,10,8.9,12
2012/2/8 5:21,3.9,11,4,10,5.8,13
2012/2/8 5:22,3.8,11,3.9,10,5.7,13
2012/2/8 5:23,3.8,11,3.8,10,5.4,12
2012/2/8 5:24,3.7,11,3.8,10,6.9,10
2012/2/8 5:25,3.6,12,3.7,10,6.5,10
2012/2/8 5:26,3.5,12,3.6,10,4.7,12
2012/2/8 5:27,3.5,12,3.5,10,4.7,12
2012/2/8 5:28,3.3,12,3.4,11,4.1,13
2012/2/8 5:29,3.3,12,3.4,11,5.8,13
2012/2/8 5:30,3.1,12,3.3,11,4.1,13
2012/2/8 5:31,2.9,12,3.1,11,3,10
2012/2/8 5:32,2.8,12,2.8,11,5.1,12
2012/2/8 5:33,2.8,12,2.8,11,4.5,10
2012/2/8 5:34,2.9,12,2.9,11,5.7,11
2012/2/8 5:35,3,12,3,12,6.7,12
2012/2/8 5:36,3.2,12,3.2,12,8.2,13
2012/2/8 5:37,3.2,12,3.3,12,6.2,14
2012/2/8 5:38,3.5,12,3.5,12,5.8,14
2012/2/8 5:39,3.2,13,3.4,12,3.6,14
2012/2/8 5:40,3.4,13,3.4,12,5.6,12
2012/2/8 5:41,3.5,13,3.5,12,4.8,15
2012/2/8 5:42,3.5,13,3.6,13,4.2,13
2012/2/8 5:43,3.4,13,3.5,13,4.4,13
2012/2/8 5:44,3.4,13,3.4,13,5.5,12
2012/2/8 5:45,3.3,13,3.4,13,6.5,13
2012/2/8 5:46,3.2,13,3.4,13,7.8,12
2012/2/8 5:47,3.3,13,3.3,13,6.1,13
2012/2/8 5:48,3.1,13,3.2,13,4.7,13
2012/2/8 5:49,3.4,13,3.4,13,7,13
2012/2/8 5:50,3.3,13,3.4,13,4.8,12
2012/2/8 5:51,3.4,13,3.4,13,7,12
2012/2/8 5:52,3.4,13,3.4,13,4.4,13
2012/2/8 5:53,3.6,13,3.6,13,7,12
2012/2/8 5:54,3.8,13,3.9,13,7.8,13
2012/2/8 5:55,3.9,13,3.9,13,7.8,14
2012/2/8 5:56,4,13,4,13,7.7,14
2012/2/8 5:57,4,13,4,13,6.7,14
2012/2/8 5:58,4.1,13,4.1,13,6.3,14
2012/2/8 5:59,3.8,13,4.1,13,4.1,15
2012/2/8 6:00,3.9,13,3.9,13,6.5,13
2012/2/8 6:01,3.9,14,3.9,13,7.9,14
2012/2/8 6:02,4.1,14,4.1,13,7.6,13
2012/2/8 6:03,4.3,14,4.3,14,8.1,14
2012/2/8 6:04,4.2,14,4.3,14,7.4,12
2012/2/8 6:05,4.1,14,4.2,14,6.5,14
2012/2/8 6:06,4.1,14,4.1,14,8.4,13
2012/2/8 6:07,4.1,14,4.2,14,7.7,15
2012/2/8 6:08,3.9,14,4.1,14,3.7,13
2012/2/8 6:09,3.9,14,4,14,4.2,16
2012/2/8 6:10,3.8,14,4,14,3.3,13
2012/2/8 6:11,3.7,14,3.8,14,6.1,14
2012/2/8 6:12,3.6,14,3.8,14,5.6,11
2012/2/8 6:13,3.4,14,3.6,14,6.3,12
2012/2/8 6:14,3.3,14,3.4,14,4.8,15
2012/2/8 6:15,3.3,14,3.3,14,4.9,12
2012/2/8 6:16,3,14,3.3,14,3.7,13
2012/2/8 6:17,2.9,13,3,14,3.8,11
2012/2/8 6:18,3,13,3,14,3.5,14
2012/2/8 6:19,3.1,13,3.1,14,4.2,13
2012/2/8 6:20,3.2,13,3.2,14,5,12
2012/2/8 6:21,3.2,13,3.3,14,6,12
2012/2/8 6:22,3.2,13,3.2,14,5.6,13
2012/2/8 6:23,3,13,3.2,14,5,12
2012/2/8 6:24,2.9,13,3,14,4.4,13
2012/2/8 6:25,2.8,13,3,14,4.7,13
2012/2/8 6:26,2.8,13,2.8,13,4.2,13
2012/2/8 6:27,2.7,13,2.8,13,2.7,12
2012/2/8 6:28,2.7,13,2.7,13,6.5,12
2012/2/8 6:29,2.9,13,2.9,13,7.6,14
2012/2/8 6:30,3,13,3,13,6.2,11
2012/2/8 6:31,3,13,3,13,5.8,14
2012/2/8 6:32,2.8,13,3,13,5.6,12
2012/2/8 6:33,2.9,13,2.9,13,4.7,11
2012/2/8 6:34,2.9,12,2.9,13,3.7,11
2012/2/8 6:35,2.9,12,2.9,13,2.9,11
2012/2/8 6:36,3,12,3,13,7,10
2012/2/8 6:37,3.3,12,3.3,12,7.5,10
2012/2/8 6:38,3.2,12,3.3,12,4.8,12
2012/2/8 6:39,3,12,3.2,12,3.3,12
2012/2/8 6:40,2.8,12,2.9,12,7.2,11
2012/2/8 6:41,2.9,11,2.9,12,7.9,11
2012/2/8 6:42,3.1,11,3.1,12,7.4,11
2012/2/8 6:43,2.9,11,3.1,12,4.3,8
2012/2/8 6:44,3.2,11,3.2,12,7.9,9
2012/2/8 6:45,3.5,11,3.5,11,9.1,13
2012/2/8 6:46,3.7,11,3.7,11,10.1,10
2012/2/8 6:47,3.6,11,3.7,11,7,13
2012/2/8 6:48,3.8,11,3.8,11,7.7,10
2012/2/8 6:49,3.9,11,4,11,6.3,11
2012/2/8 6:50,3.9,11,3.9,11,5,13
2012/2/8 6:51,3.8,11,3.9,11,6.3,12
2012/2/8 6:52,3.7,11,3.8,11,4.5,12
2012/2/8 6:53,3.7,11,3.7,11,5.6,11
2012/2/8 6:54,3.6,11,3.7,11,11.3,12
2012/2/8 6:55,3.6,12,3.7,11,9.2,13
2012/2/8 6:56,3.4,12,3.6,11,5.5,15
2012/2/8 6:57,3.2,12,3.3,11,4.7,12
2012/2/8 6:58,3,12,3.2,11,4.5,13
2012/2/8 6:59,3,12,3,11,6.9,12
2012/2/8 7:00,3.2,12,3.2,11,7.1,11
2012/2/8 7:01,3.4,12,3.4,11,9.1,10
2012/2/8 7:02,3.7,12,3.7,11,8.7,13
2012/2/8 7:03,3.9,12,3.9,12,5.5,13
2012/2/8 7:04,4,12,4,12,8.3,13
2012/2/8 7:05,3.7,12,4,12,4.4,11
2012/2/8 7:06,3.7,12,3.7,12,6.4,13
2012/2/8 7:07,4.1,12,4.1,12,8.6,14
2012/2/8 7:08,4,12,4.1,12,4.8,14
2012/2/8 7:09,4,12,4.1,12,5.2,13
2012/2/8 7:10,3.8,12,3.9,12,6.4,12
2012/2/8 7:11,3.7,13,3.9,12,9,11
2012/2/8 7:12,3.6,12,3.8,12,9.2,13
2012/2/8 7:13,3.7,12,3.7,12,7.9,9
2012/2/8 7:14,3.6,12,3.7,12,6,13
2012/2/8 7:15,3.6,12,3.6,12,5.2,12
2012/2/8 7:16,3.7,12,3.7,12,8.1,13
2012/2/8 7:17,3.7,12,3.7,12,8.1,10
2012/2/8 7:18,3.9,12,3.9,12,7.8,12
2012/2/8 7:19,4.1,12,4.1,12,7.7,13
2012/2/8 7:20,4.3,12,4.3,12,9.4,9
2012/2/8 7:21,4.2,11,4.3,12,8.2,8
2012/2/8 7:22,4.1,12,4.2,12,7.1,12
2012/2/8 7:23,4.1,12,4.1,12,9,12
2012/2/8 7:24,4.1,12,4.1,12,7.6,11
2012/2/8 7:25,4.2,12,4.2,12,7.1,9
2012/2/8 7:26,4.2,12,4.3,12,6.4,11
2012/2/8 7:27,4.2,12,4.3,12,6.5,12
2012/2/8 7:28,4.1,12,4.2,12,7.6,10
2012/2/8 7:29,4,12,4.1,12,4.3,13
2012/2/8 7:30,3.7,12,3.9,12,6.3,9
2012/2/8 7:31,3.7,12,3.7,12,6.1,12
2012/2/8 7:32,3.9,12,3.9,12,8.2,12
2012/2/8 7:33,3.8,12,3.9,12,5.4,13
2012/2/8 7:34,3.5,12,3.8,12,3.3,13
2012/2/8 7:35,3.3,12,3.5,12,3.3,10
2012/2/8 7:36,3.3,11,3.3,12,5.5,10
2012/2/8 7:37,3.2,11,3.3,12,6.8,13
2012/2/8 7:38,3.3,11,3.3,12,6.8,12
2012/2/8 7:39,3.5,12,3.5,12,6.8,12
2012/2/8 7:40,3.5,12,3.5,12,5.8,12
2012/2/8 7:41,3.4,12,3.5,12,3.9,12
2012/2/8 7:42,3.1,12,3.3,12,4.5,12
2012/2/8 7:43,3,12,3.1,12,5.4,10
2012/2/8 7:44,3.1,12,3.1,12,4.5,13
2012/2/8 7:45,3.1,12,3.2,11,2.1,13
2012/2/8 7:46,2.9,12,3.1,11,3.6,8
2012/2/8 7:47,2.7,12,2.9,11,4.4,13
2012/2/8 7:48,2.5,12,2.7,11,4.5,10
2012/2/8 7:49,2.4,12,2.5,12,4.3,9
2012/2/8 7:50,2.4,11,2.4,12,4.4,9
2012/2/8 7:51,2.4,11,2.5,12,3.8,14
2012/2/8 7:52,2.4,11,2.4,12,4.2,11
2012/2/8 7:53,2.2,11,2.4,12,3.1,13
2012/2/8 7:54,2.2,11,2.2,12,4.2,9
2012/2/8 7:55,2.5,11,2.5,12,5,11
2012/2/8 7:56,2.6,11,2.6,12,4.9,11
2012/2/8 7:57,2.6,11,2.7,12,4.7,10
2012/2/8 7:58,2.8,10,2.8,10,6.7,10
2012/2/8 7:59,2.8,10,2.8,10,6,10
2012/2/8 8:00,2.8,11,2.8,10,4.5,13
2012/2/8 8:01,2.8,11,2.8,10,4.1,13
2012/2/8 8:02,2.8,11,2.8,10,3.5,13
2012/2/8 8:03,2.9,11,2.9,11,4.7,13
2012/2/8 8:04,3,11,3,11,4.3,10
2012/2/8 8:05,2.9,11,3,11,3.7,10
2012/2/8 8:06,2.6,11,2.8,11,2.1,12
2012/2/8 8:07,2.4,11,2.6,11,1.9,10
2012/2/8 8:08,2.3,11,2.4,11,4.2,9
2012/2/8 8:09,2.2,11,2.3,11,4.8,9
2012/2/8 8:10,2.2,11,2.2,11,4.5,10
2012/2/8 8:11,2.3,11,2.3,11,4.5,10
2012/2/8 8:12,2.3,11,2.3,11,5.4,12
2012/2/8 8:13,2.3,11,2.4,11,4.3,12
2012/2/8 8:14,2.1,11,2.2,11,2.1,11
2012/2/8 8:15,2.1,10,2.1,11,4.7,10
2012/2/8 8:16,2.4,10,2.4,11,5,10
2012/2/8 8:17,2.7,10,2.7,10,6.5,10
2012/2/8 8:18,2.7,10,2.7,10,5.4,10
2012/2/8 8:19,2.8,10,2.8,10,6.5,9
2012/2/8 8:20,2.9,11,2.9,10,6.1,12
2012/2/8 8:21,2.8,11,2.9,10,3.8,9
2012/2/8 8:22,2.7,11,2.8,10,5,10
2012/2/8 8:23,2.7,10,2.8,10,5.7,8
2012/2/8 8:24,2.8,10,2.8,10,3.7,9
2012/2/8 8:25,2.8,10,2.9,10,5.2,10
2012/2/8 8:26,2.7,10,2.8,10,5.1,10
2012/2/8 8:27,2.7,10,2.7,10,5.2,10
2012/2/8 8:28,2.7,10,2.7,10,5.7,10
2012/2/8 8:29,2.8,10,2.8,10,6.5,9
2012/2/8 8:30,2.8,10,2.8,11,6.2,9
2012/2/8 8:31,2.9,10,2.9,10,5.4,9
2012/2/8 8:32,3.1,10,3.1,10,6.1,8
2012/2/8 8:33,3.4,10,3.4,10,7.2,10
2012/2/8 8:34,3.6,10,3.6,10,7.9,10
2012/2/8 8:35,3.7,10,3.7,10,7.8,10
2012/2/8 8:36,3.9,10,3.9,10,7,10
2012/2/8 8:37,3.9,10,4,10,6.3,10
2012/2/8 8:38,4.1,10,4.1,10,9,9
2012/2/8 8:39,4.3,10,4.3,10,6.7,9
2012/2/8 8:40,4.3,10,4.4,10,7.9,8
2012/2/8 8:41,4.4,10,4.5,10,7,10
2012/2/8 8:42,4.3,10,4.4,10,6.7,10
2012/2/8 8:43,4.2,10,4.3,10,6.3,9
2012/2/8 8:44,4.1,10,4.2,10,5.8,10
2012/2/8 8:45,4.1,10,4.1,10,6.7,9
2012/2/8 8:46,4.2,10,4.2,10,7,10
2012/2/8 8:47,4.3,10,4.3,10,6.8,10
2012/2/8 8:48,4.1,10,4.3,10,6.3,9
2012/2/8 8:49,4,10,4.1,10,7.7,10
2012/2/8 8:50,4,10,4,10,7.8,9
2012/2/8 8:51,3.9,10,4.1,10,7.4,10
2012/2/8 8:52,3.9,10,3.9,10,5.2,10
2012/2/8 8:53,3.8,10,3.9,10,7.2,8
2012/2/8 8:54,3.7,10,3.8,10,6,10
2012/2/8 8:55,3.8,10,3.8,10,8.1,10
2012/2/8 8:56,3.7,10,3.8,10,6.8,8
2012/2/8 8:57,3.6,10,3.7,10,5.8,10
2012/2/8 8:58,3.6,10,3.6,10,9.1,9
2012/2/8 8:59,3.7,10,3.7,10,9,9
2012/2/8 9:00,3.6,10,3.6,10,6.1,10
2012/2/8 9:01,3.7,10,3.7,10,7.7,9
2012/2/8 9:02,3.8,10,3.8,10,6.3,10
2012/2/8 9:03,3.7,10,3.8,10,6.1,10
2012/2/8 9:04,4,10,4,10,7.5,10
2012/2/8 9:05,3.9,10,4,10,5.8,11
2012/2/8 9:06,3.9,10,4,10,7.6,11
2012/2/8 9:07,4,10,4,10,6.7,10
2012/2/8 9:08,3.9,10,4.1,10,4.4,11
2012/2/8 9:09,3.7,10,3.8,10,5.1,9
2012/2/8 9:10,3.8,10,3.8,10,6.9,9
2012/2/8 9:11,3.9,10,3.9,10,9.8,9
2012/2/8 9:12,3.9,10,3.9,10,7.6,10
2012/2/8 9:13,4.1,10,4.1,10,8.1,10
2012/2/8 9:14,3.8,10,4.1,10,6.7,9
2012/2/8 9:15,4,10,4,10,9.3,10
2012/2/8 9:16,4.1,10,4.1,10,8.1,10
2012/2/8 9:17,4,10,4.1,10,6.1,10
2012/2/8 9:18,4.3,10,4.3,10,8.5,11
2012/2/8 9:19,4.2,10,4.3,10,4.4,12
2012/2/8 9:20,4.1,10,4.3,10,5.7,9
2012/2/8 9:21,3.9,10,4.1,10,6.4,10
2012/2/8 9:22,4,10,4,10,9.2,10
2012/2/8 9:23,4.3,10,4.3,10,10.7,12
2012/2/8 9:24,4.2,10,4.3,10,3.3,13
2012/2/8 9:25,3.8,10,4.1,10,3.9,7
2012/2/8 9:26,3.7,10,3.8,10,6.2,11
2012/2/8 9:27,3.6,10,3.7,10,7,9
2012/2/8 9:28,3.7,10,3.7,10,8.5,9
2012/2/8 9:29,3.8,10,3.8,10,7.2,10
2012/2/8 9:30,3.8,10,3.8,10,7.6,10
2012/2/8 9:31,3.8,10,3.9,10,6.4,11
2012/2/8 9:32,3.5,10,3.8,10,5,8
2012/2/8 9:33,3.3,10,3.5,10,8.1,11
2012/2/8 9:34,3.6,10,3.6,10,7.1,11
2012/2/8 9:35,3.8,10,3.8,10,5,10
2012/2/8 9:36,3.6,10,3.8,10,4.2,13
2012/2/8 9:37,3.5,10,3.6,10,5,12
2012/2/8 9:38,3.4,11,3.5,10,7,11
2012/2/8 9:39,3.2,11,3.4,10,3.8,13
2012/2/8 9:40,3.2,10,3.3,10,7,10
2012/2/8 9:41,3.2,11,3.2,10,7,11
2012/2/8 9:42,3.4,11,3.4,10,6.8,11
2012/2/8 9:43,3.3,11,3.4,10,5.4,10
2012/2/8 9:44,3.2,11,3.3,10,7.4,12
2012/2/8 9:45,3.1,11,3.2,10,5.6,11
2012/2/8 9:46,3.4,11,3.4,10,7.9,12
2012/2/8 9:47,3.6,11,3.7,11,9.1,11
2012/2/8 9:48,3.6,11,3.6,11,8.1,11
2012/2/8 9:49,3.7,11,3.7,11,7.1,12
2012/2/8 9:50,3.7,11,3.8,11,5.2,10
2012/2/8 9:51,3.7,11,3.7,11,7.5,9
2012/2/8 9:52,3.8,11,3.8,11,8.9,11
2012/2/8 9:53,3.8,11,3.8,11,6.7,9
2012/2/8 9:54,3.7,11,3.8,11,5.8,11
2012/2/8 9:55,3.5,11,3.7,11,2.2,12
2012/2/8 9:56,3.3,11,3.5,11,4.8,13
2012/2/8 9:57,3,11,3.3,11,5,16
2012/2/8 9:58,3.1,11,3.1,11,10.1,13
2012/2/8 9:59,3.2,12,3.2,11,6.1,11
2012/2/8 10:00,3.2,12,3.2,11,4.7,13
2012/2/8 10:01,3.2,12,3.2,11,6.7,9
2012/2/8 10:02,3,12,3.2,11,7.2,11
2012/2/8 10:03,3.1,12,3.1,11,6.8,12
2012/2/8 10:04,2.9,12,3,11,4.1,7
2012/2/8 10:05,3.1,12,3.1,11,6.8,10
2012/2/8 10:06,3.1,11,3.1,11,5.4,9
2012/2/8 10:07,3.4,11,3.4,11,9.3,10
2012/2/8 10:08,3.3,11,3.5,11,6.3,10
2012/2/8 10:09,3.3,11,3.3,11,6.9,9
2012/2/8 10:10,3.4,11,3.4,11,5.7,12
2012/2/8 10:11,3.5,11,3.5,11,8.1,11
2012/2/8 10:12,3.4,11,3.5,11,4.4,10
2012/2/8 10:13,3.1,11,3.3,11,7.1,9
2012/2/8 10:14,3.3,10,3.3,11,8.1,9
2012/2/8 10:15,3.5,10,3.5,11,10.6,10
2012/2/8 10:16,3.8,10,3.8,10,10.9,10
2012/2/8 10:17,3.9,10,4,10,9.8,9
2012/2/8 10:18,4,10,4,10,7.1,12
2012/2/8 10:19,4.1,10,4.1,10,9,9
2012/2/8 10:20,4.3,10,4.3,10,10.7,10
2012/2/8 10:21,4.3,10,4.3,10,6.2,10
2012/2/8 10:22,4.4,10,4.4,10,5.7,11
2012/2/8 10:23,4.6,10,4.6,10,4.3,9
2012/2/8 10:24,4.3,10,4.5,10,4.8,11
2012/2/8 10:25,4.1,11,4.2,10,4.8,12
2012/2/8 10:26,3.7,11,4.1,10,6.9,13
2012/2/8 10:27,3.7,11,3.7,10,8.7,13
2012/2/8 10:28,3.6,11,3.7,10,7.9,12
2012/2/8 10:29,3.5,11,3.6,10,5.4,11
2012/2/8 10:30,3.4,11,3.5,10,8.7,13
2012/2/8 10:31,3.2,12,3.4,10,7.9,13
2012/2/8 10:32,3.1,12,3.3,10,4.7,10
2012/2/8 10:33,3,12,3.1,10,5.1,9
2012/2/8 10:34,3,12,3,10,4.5,9
2012/2/8 10:35,3.2,12,3.2,11,7.2,11
2012/2/8 10:36,3.2,12,3.2,11,5.1,10
2012/2/8 10:37,3.1,11,3.2,11,6.7,9
2012/2/8 10:38,3,11,3.1,11,6,9
2012/2/8 10:39,3,11,3,11,5.7,10
2012/2/8 10:40,2.8,10,3,12,3.8,9
2012/2/8 10:41,2.7,10,2.7,12,4.7,11
2012/2/8 10:42,2.8,10,2.8,12,4.9,10
2012/2/8 10:43,3.2,10,3.2,12,9.3,10
2012/2/8 10:44,3.4,10,3.4,10,6.9,10
2012/2/8 10:45,3.2,10,3.3,10,4.3,9
2012/2/8 10:46,3.1,10,3.2,10,4.4,9
2012/2/8 10:47,3,10,3.1,10,6,10
2012/2/8 10:48,3.1,11,3.1,10,6.9,13
2012/2/8 10:49,3.1,11,3.1,10,6.7,10
2012/2/8 10:50,3.1,11,3.1,10,3.7,10
2012/2/8 10:51,3,11,3.1,10,3.8,9
2012/2/8 10:52,3,11,3,10,5.2,12
2012/2/8 10:53,2.7,11,3,10,5.2,8
2012/2/8 10:54,2.6,11,2.7,10,5,10
2012/2/8 10:55,2.8,11,2.8,10,7,9
2012/2/8 10:56,3.1,11,3.1,10,7.6,10
2012/2/8 10:57,3.1,11,3.1,11,6.7,8
2012/2/8 10:58,3.1,11,3.2,11,6,12
2012/2/8 10:59,3,11,3,11,4.4,12
2012/2/8 11:00,3,11,3,11,2.7,13
2012/2/8 11:01,2.9,11,3,11,2.4,7
2012/2/8 11:02,2.8,11,2.9,11,3.5,16
2012/2/8 11:03,2.9,12,2.9,11,7.6,12
2012/2/8 11:04,3,12,3,11,5.8,12
2012/2/8 11:05,2.7,12,2.9,11,2.1,13
2012/2/8 11:06,2.4,12,2.6,11,2.5,12
2012/2/8 11:07,2.2,12,2.4,11,4.7,9
2012/2/8 11:08,2.1,13,2.1,11,5.7,12
2012/2/8 11:09,2.2,12,2.2,11,8.1,11
2012/2/8 11:10,2.5,12,2.5,11,8.1,11
2012/2/8 11:11,2.6,12,2.6,12,5,10
2012/2/8 11:12,2.8,12,2.8,12,5.4,10
2012/2/8 11:13,2.7,11,2.8,12,7.2,9
2012/2/8 11:14,2.8,11,2.8,12,6.3,11
2012/2/8 11:15,3,11,3,11,6.1,9
2012/2/8 11:16,3,11,3,11,4.2,10
2012/2/8 11:17,3.1,11,3.1,11,5.2,12
2012/2/8 11:18,3,11,3.1,11,3.7,14